| time (UTC) | temp F | wind direction | speed knots | gust knots | rain 1hr in | rain 24hr in | rain mn in | humidity % | barometer mb |
| 20260507114017 | 41 | 134 | 0.0 | 0.9 | 0.00 | 0.02 | 0.00 | 98 | |
| 20260507113037 | 41 | 166 | 0.0 | 0.9 | 0.00 | 0.02 | 0.00 | 97 | |
| 20260507112057 | 40 | 134 | 0.0 | 0.0 | 0.00 | 0.02 | 0.00 | 97 | |
| 20260507111016 | 40 | 152 | 0.0 | 0.9 | 0.00 | 0.02 | 0.00 | 97 | |
| 20260507110017 | 40 | 134 | 0.0 | 0.9 | 0.00 | 0.02 | 0.00 | 96 | |
| 20260507105017 | 40 | 170 | 0.0 | 0.9 | 0.00 | 0.02 | 0.00 | 96 | |
| 20260507104017 | 40 | 158 | 0.0 | 0.9 | 0.00 | 0.02 | 0.00 | 96 | |
| 20260507103017 | 40 | 135 | 0.0 | 0.9 | 0.00 | 0.02 | 0.00 | 96 | |
| 20260507102036 | 41 | 166 | 0.0 | 0.0 | 0.00 | 0.02 | 0.00 | 96 | |
| 20260507101017 | 41 | 310 | 0.0 | 0.0 | 0.00 | 0.02 | 0.00 | 97 | |
| 20260507100017 | 41 | 17 | 0.0 | 1.7 | 0.00 | 0.02 | 0.00 | 97 | |
| 20260507095016 | 41 | 146 | 0.0 | 0.9 | 0.00 | 0.02 | 0.00 | 97 | |
| 20260507094017 | 41 | 134 | 0.0 | 0.0 | 0.00 | 0.02 | 0.00 | 96 | |
| 20260507093036 | 41 | 159 | 0.0 | 0.9 | 0.00 | 0.02 | 0.00 | 96 | |
| 20260507092036 | 41 | 134 | 0.0 | 0.0 | 0.00 | 0.02 | 0.00 | 96 | |
| 20260507091017 | 42 | 134 | 0.0 | 0.9 | 0.00 | 0.02 | 0.00 | 96 | |
| 20260507090016 | 42 | 139 | 0.0 | 0.9 | 0.00 | 0.02 | 0.00 | 96 | |
| 20260507085017 | 42 | 162 | 0.0 | 0.9 | 0.00 | 0.02 | 0.00 | 96 | |
| 20260507084017 | 42 | 0.0 | 0.0 | 0.00 | 0.02 | 0.00 | 97 | ||
| 20260507083017 | 42 | 117 | 0.0 | 0.9 | 0.00 | 0.02 | 0.00 | 97 | |
| 20260507082017 | 42 | 134 | 0.0 | 0.0 | 0.00 | 0.02 | 0.00 | 96 | |
| 20260507081017 | 42 | 134 | 0.0 | 0.0 | 0.00 | 0.02 | 0.00 | 96 | |
| 20260507080016 | 43 | 0.0 | 0.0 | 0.00 | 0.02 | 0.00 | 96 | ||
| 20260507075017 | 43 | 134 | 0.0 | 0.0 | 0.00 | 0.02 | 0.00 | 96 | |
| 20260507074017 | 43 | 134 | 0.0 | 0.0 | 0.00 | 0.03 | 0.00 | 96 | |
| 20260507073017 | 43 | 44 | 0.0 | 0.0 | 0.00 | 0.04 | 0.00 | 97 | |
| 20260507072037 | 43 | 351 | 0.0 | 0.0 | 0.00 | 0.04 | 0.00 | 96 | |
| 20260507071036 | 43 | 179 | 0.0 | 0.9 | 0.00 | 0.05 | 0.00 | 97 | |
| 20260507070017 | 43 | 134 | 0.0 | 0.9 | 0.00 | 0.07 | 0.00 | 96 | |
| 20260507065016 | 43 | 0.0 | 0.0 | 0.00 | 0.10 | 0.00 | 96 | ||
| 20260507064016 | 44 | 0.0 | 0.0 | 0.00 | 0.10 | 0.00 | 96 | ||
| 20260507063017 | 44 | 0.0 | 0.0 | 0.00 | 0.10 | 0.00 | 96 | ||
| 20260507062018 | 44 | 179 | 0.0 | 0.0 | 0.00 | 0.11 | 0.00 | 95 | |
| 20260507061037 | 44 | 0.0 | 0.0 | 0.00 | 0.11 | 0.00 | 95 | ||
| 20260507060017 | 44 | 0.0 | 0.0 | 0.00 | 0.12 | 0.00 | 95 | ||
| 20260507055017 | 45 | 0.0 | 0.0 | 0.00 | 0.15 | 0.00 | 95 | ||
| 20260507054017 | 45 | 88 | 0.0 | 0.0 | 0.00 | 0.17 | 0.00 | 95 | |
| 20260507053017 | 45 | 0.0 | 0.0 | 0.00 | 0.18 | 0.00 | 96 | ||
| 20260507052017 | 46 | 0.0 | 0.0 | 0.00 | 0.21 | 0.00 | 95 | ||
| 20260507051017 | 46 | 0.0 | 0.0 | 0.00 | 0.23 | 0.00 | 96 | ||
| 20260507050037 | 46 | 0.0 | 0.0 | 0.00 | 0.27 | 0.00 | 97 | ||
| 20260507045037 | 46 | 134 | 0.0 | 0.0 | 0.00 | 0.33 | 0.00 | 98 | |
| 20260507044017 | 46 | 134 | 0.0 | 0.9 | 0.00 | 0.41 | 0.00 | 97 | |
| 20260507043017 | 47 | 0.0 | 0.0 | 0.00 | 0.43 | 0.00 | 97 | ||
| 20260507042017 | 47 | 0.0 | 0.0 | 0.00 | 0.47 | 0.00 | 97 | ||
| 20260507041017 | 47 | 0.0 | 0.0 | 0.00 | 0.49 | 0.00 | 96 | ||
| 20260507040017 | 47 | 134 | 0.0 | 0.0 | 0.00 | 0.52 | 0.00 | 97 | |
| 20260507035017 | 47 | 0.0 | 0.0 | 0.00 | 0.55 | 0.00 | 97 | ||
| 20260507034017 | 47 | 0.0 | 0.0 | 0.00 | 0.56 | 0.00 | 95 | ||
| 20260507033057 | 48 | 0.0 | 0.0 | 0.00 | 0.58 | 0.00 | 95 | ||
| 20260507032017 | 48 | 0.0 | 0.0 | 0.00 | 0.58 | 0.00 | 94 | ||
| 20260507031016 | 49 | 0.0 | 0.0 | 0.00 | 0.59 | 0.00 | 95 | ||
| 20260507030017 | 49 | 0.0 | 0.0 | 0.00 | 0.62 | 0.00 | 95 | ||
| 20260507025017 | 49 | 0.0 | 0.0 | 0.00 | 0.62 | 0.00 | 94 | ||
| 20260507024016 | 50 | 0.0 | 0.0 | 0.00 | 0.63 | 0.00 | 93 | ||
| 20260507023017 | 50 | 0.0 | 0.0 | 0.00 | 0.65 | 0.00 | 93 | ||
| 20260507022057 | 51 | 0.0 | 0.0 | 0.00 | 0.68 | 0.00 | 94 | ||
| 20260507021016 | 52 | 134 | 0.0 | 0.0 | 0.00 | 0.70 | 0.00 | 95 | |
| 20260507020018 | 52 | 134 | 0.0 | 0.0 | 0.00 | 0.71 | 0.00 | 96 | |
| 20260507015016 | 53 | 0.0 | 0.0 | 0.00 | 0.73 | 0.00 | 96 | ||
| 20260507014017 | 53 | 134 | 0.0 | 0.0 | 0.00 | 0.77 | 0.00 | 96 | |
| 20260507013017 | 53 | 134 | 0.0 | 0.0 | 0.00 | 0.78 | 0.00 | 93 | |
| 20260507012016 | 54 | 0.0 | 0.0 | 0.00 | 0.78 | 0.00 | 92 | ||
| 20260507011017 | 55 | 88 | 0.0 | 0.0 | 0.00 | 0.79 | 0.00 | 91 | |
| 20260507010017 | 56 | 0.0 | 0.0 | 0.00 | 0.80 | 0.00 | 92 | ||
| 20260507005017 | 58 | 281 | 0.9 | 1.7 | 0.00 | 0.84 | 0.00 | 92 | |
| 20260507004017 | 59 | 269 | 0.9 | 1.7 | 0.00 | 0.88 | 0.00 | 92 | |
| 20260507003017 | 60 | 288 | 0.9 | 2.6 | 0.00 | 0.89 | 0.00 | 92 | |
| 20260507002017 | 61 | 269 | 1.7 | 3.5 | 0.00 | 0.89 | 0.00 | 92 | |
| 20260507001017 | 61 | 307 | 2.6 | 4.3 | 0.00 | 0.89 | 0.00 | 92 | |
| 20260507000016 | 62 | 279 | 1.7 | 2.6 | 0.00 | 0.91 | 0.00 | 91 | |
| 20260506235018 | 63 | 279 | 1.7 | 3.5 | 0.00 | 0.92 | 0.91 | 89 | |
| 20260506234017 | 64 | 267 | 1.7 | 3.5 | 0.00 | 0.93 | 0.91 | 89 | |
| 20260506233017 | 65 | 291 | 0.9 | 2.6 | 0.00 | 0.93 | 0.91 | 87 | |
| 20260506232017 | 65 | 349 | 1.7 | 4.3 | 0.00 | 0.95 | 0.91 | 91 | |
| 20260506231016 | 64 | 353 | 1.7 | 3.5 | 0.00 | 0.96 | 0.91 | 92 | |
| 20260506230017 | 65 | 331 | 1.7 | 4.3 | 0.00 | 0.96 | 0.91 | 92 | |
| 20260506225017 | 65 | 302 | 2.6 | 5.2 | 0.00 | 0.98 | 0.91 | 94 | |
| 20260506224016 | 64 | 317 | 1.7 | 4.3 | 0.00 | 0.98 | 0.91 | 93 | |
| 20260506223017 | 64 | 345 | 1.7 | 4.3 | 0.00 | 0.98 | 0.91 | 92 | |
| 20260506222017 | 65 | 291 | 1.7 | 3.5 | 0.00 | 0.98 | 0.91 | 92 | |
| 20260506221017 | 65 | 320 | 1.7 | 3.5 | 0.00 | 0.98 | 0.91 | 91 | |
| 20260506220017 | 66 | 36 | 0.9 | 2.6 | 0.00 | 0.99 | 0.91 | 91 | |
| 20260506215016 | 67 | 278 | 2.6 | 5.2 | 0.00 | 1.00 | 0.91 | 91 | |
| 20260506214018 | 67 | 280 | 0.9 | 2.6 | 0.00 | 1.00 | 0.91 | 91 | |
| 20260506213036 | 67 | 276 | 0.9 | 4.3 | 0.00 | 1.01 | 0.91 | 91 | |
| 20260506212017 | 67 | 264 | 2.6 | 3.5 | 0.00 | 1.02 | 0.91 | 92 | |
| 20260506211017 | 67 | 289 | 1.7 | 4.3 | 0.00 | 1.02 | 0.91 | 93 | |
| 20260506210016 | 66 | 295 | 2.6 | 5.2 | 0.00 | 1.03 | 0.91 | 90 | |
| 20260506205037 | 66 | 283 | 1.7 | 5.2 | 0.01 | 1.04 | 0.91 | 90 | |
| 20260506204017 | 66 | 308 | 2.6 | 4.3 | 0.01 | 1.04 | 0.91 | 89 | |
| 20260506203016 | 67 | 312 | 1.7 | 4.3 | 0.01 | 1.04 | 0.91 | 89 | |
| 20260506202017 | 67 | 337 | 1.7 | 2.6 | 0.01 | 1.05 | 0.91 | 89 | |
| 20260506201037 | 67 | 352 | 1.7 | 3.5 | 0.01 | 1.05 | 0.91 | 87 | |
| 20260506200057 | 68 | 287 | 2.6 | 6.1 | 0.01 | 1.06 | 0.91 | 86 | |
| 20260506195037 | 70 | 297 | 2.6 | 5.2 | 0.00 | 1.06 | 0.90 | 85 | |
| 20260506194017 | 72 | 294 | 3.5 | 5.2 | 0.00 | 1.09 | 0.90 | 85 | |
| 20260506193018 | 72 | 310 | 1.7 | 4.3 | 0.00 | 1.11 | 0.90 | 89 | |
| 20260506192037 | 72 | 289 | 2.6 | 5.2 | 0.00 | 1.15 | 0.90 | 89 | |
| 20260506191017 | 70 | 325 | 1.7 | 3.5 | 0.00 | 1.17 | 0.90 | 93 | |
| 20260506190037 | 69 | 307 | 1.7 | 4.3 | 0.00 | 1.17 | 0.90 | 91 | |
| 20260506185016 | 70 | 300 | 2.6 | 4.3 | 0.00 | 1.17 | 0.90 | 92 | |
| 20260506184037 | 70 | 339 | 1.7 | 3.5 | 0.00 | 1.17 | 0.90 | 91 | |
| 20260506183017 | 72 | 351 | 1.7 | 4.3 | 0.00 | 1.17 | 0.90 | 89 | |
| 20260506182016 | 73 | 330 | 1.7 | 4.3 | 0.00 | 1.17 | 0.90 | 91 | |
| 20260506181017 | 74 | 339 | 1.7 | 4.3 | 0.00 | 1.17 | 0.90 | 90 | |
| 20260506180017 | 75 | 283 | 1.7 | 3.5 | 0.00 | 1.17 | 0.90 | 93 | |
| 20260506175017 | 74 | 287 | 2.6 | 6.1 | 0.00 | 1.17 | 0.90 | 93 | |
| 20260506174017 | 73 | 19 | 1.7 | 3.5 | 0.00 | 1.17 | 0.90 | 94 | |
| 20260506173016 | 72 | 338 | 1.7 | 5.2 | 0.00 | 1.17 | 0.90 | 93 | |
| 20260506172038 | 72 | 56 | 1.7 | 5.2 | 0.00 | 1.17 | 0.90 | 94 | |
| 20260506171017 | 71 | 291 | 1.7 | 4.3 | 0.00 | 1.17 | 0.90 | 92 | |
| 20260506170017 | 72 | 314 | 1.7 | 3.5 | 0.00 | 1.17 | 0.90 | 95 | |
| 20260506165017 | 70 | 38 | 1.7 | 5.2 | 0.00 | 1.17 | 0.90 | 94 | |
| 20260506164017 | 70 | 306 | 1.7 | 3.5 | 0.00 | 1.17 | 0.90 | 92 | |
| 20260506163017 | 71 | 344 | 1.7 | 3.5 | 0.01 | 1.17 | 0.90 | 94 | |
| 20260506162017 | 69 | 329 | 1.7 | 4.3 | 0.01 | 1.17 | 0.90 | 93 | |
| 20260506161016 | 68 | 326 | 2.6 | 4.3 | 0.01 | 1.17 | 0.90 | 94 | |
| 20260506160017 | 67 | 297 | 2.6 | 5.2 | 0.01 | 1.17 | 0.90 | 92 | |
| 20260506155016 | 67 | 334 | 1.7 | 5.2 | 0.01 | 1.17 | 0.90 | 89 | |
| 20260506154017 | 69 | 1 | 1.7 | 6.1 | 0.01 | 1.17 | 0.90 | 90 | |
| 20260506153017 | 68 | 14 | 1.7 | 3.5 | 0.00 | 1.16 | 0.89 | 91 | |
| 20260506152016 | 66 | 46 | 1.7 | 3.5 | 0.00 | 1.16 | 0.89 | 93 | |
| 20260506151018 | 66 | 303 | 2.6 | 7.0 | 0.00 | 1.16 | 0.89 | 92 | |
| 20260506150016 | 65 | 301 | 2.6 | 5.2 | 0.00 | 1.16 | 0.89 | 94 | |
| 20260506145017 | 64 | 102 | 1.7 | 2.6 | 0.00 | 1.16 | 0.89 | 95 | |
| 20260506144017 | 63 | 346 | 2.6 | 5.2 | 0.00 | 1.16 | 0.89 | 94 | |
| 20260506143016 | 63 | 328 | 2.6 | 7.0 | 0.00 | 1.16 | 0.89 | 97 | |
| 20260506142017 | 60 | 23 | 1.7 | 4.3 | 0.00 | 1.16 | 0.89 | 98 | |
| 20260506141016 | 59 | 325 | 0.9 | 2.6 | 0.00 | 1.16 | 0.89 | 98 | |
| 20260506140017 | 58 | 316 | 2.6 | 4.3 | 0.00 | 1.16 | 0.89 | 97 | |
| 20260506135017 | 58 | 325 | 1.7 | 4.3 | 0.00 | 1.16 | 0.89 | 97 | |
| 20260506134017 | 58 | 346 | 1.7 | 4.3 | 0.00 | 1.16 | 0.89 | 98 | |
| 20260506133017 | 57 | 298 | 2.6 | 6.1 | 0.00 | 1.16 | 0.89 | 97 | |
| 20260506132016 | 57 | 331 | 1.7 | 4.3 | 0.00 | 1.16 | 0.89 | 99 | |
| 20260506131017 | 55 | 296 | 1.7 | 3.5 | 0.00 | 1.16 | 0.89 | 98 | |
| 20260506130018 | 55 | 13 | 0.9 | 1.7 | 0.00 | 1.16 | 0.89 | 97 | |
| 20260506125016 | 55 | 308 | 1.7 | 4.3 | 0.00 | 1.16 | 0.89 | 97 | |
| 20260506124017 | 55 | 330 | 1.7 | 3.5 | 0.00 | 1.16 | 0.89 | 98 | |
| 20260506123016 | 54 | 293 | 1.7 | 2.6 | 0.00 | 1.16 | 0.89 | 98 | |
| 20260506122017 | 53 | 321 | 1.7 | 3.5 | 0.00 | 1.16 | 0.89 | 98 | |
| 20260506121017 | 53 | 306 | 1.7 | 3.5 | 0.00 | 1.16 | 0.89 | 97 | |
| 20260506120016 | 52 | 316 | 1.7 | 3.5 | 0.00 | 1.16 | 0.89 | 97 | |
| 20260506115037 | 52 | 354 | 0.9 | 3.5 | 0.00 | 1.16 | 0.89 | 96 |